Location: Newark
(34.9500°N, 139.9667°E)
Time: 01:39:17
(UTC+00:00)

Altair - Pass Details

Date: 14 December 2019
Orbit: 1502 x 1682 km, 47.2° (Epoch: 17 January)

Event Time Altitude Azimuth Distance (km) Brightness Sun altitude
Exits shadow 17:55:32 25° 155° (SSE) 2,656 8.8 -45.1°
Drops below altitude 10° 17:58:53 10° 148° (SSE) 3,665 9.7 -44.4°
Sets 18:02:00 0° 144° (SE) 4,659 10.4 -43.8°
